Pittsfield, IL

3:30 AM CST on February 08, 2016 (GMT -0600)
Pittsfield Penstone Municipal

Weather History for KPPQ - January, 2013

Change the Weather History Date:

Tuesday, January 22, 2013

  Actual Average (KUIN) Record (KUIN)
Temperature  
Mean Temperature 12 °F 26 °F  
Max Temperature 17 °F 34 °F 70 °F (1967)
Min Temperature 8 °F 18 °F -14 °F (1930)
Degree Days  
Heating Degree Days 52 39  
Month to date heating degree days 854  
Since 1 July heating degree days 3045  
Cooling Degree Days 0 0  
Month to date cooling degree days 0  
Year to date cooling degree days 0  
Moisture  
Dew Point 1 °F    
Average Humidity 59    
Maximum Humidity 79    
Minimum Humidity 49    
Precipitation  
Precipitation 0.00 in 0.05 in 1.00 in (1965)
Month to date precipitation 1.10  
Year to date precipitation 1.10  
Sea Level Pressure  
Sea Level Pressure 30.40 in    
Wind  
Wind Speed 5 mph (WNW)    
Max Wind Speed 12 mph    
Max Gust Speed -    
Visibility 10 miles    
Events      
T = Trace of Precipitation, MM = Missing Value Source: NWS Daily Summary

Daily Weather History Graph

Daily Weather History Graph

Search for Another Location

Airport or City:

Trip Planner

Search our weather history database for the weather conditions in past years. The results will help you decide how hot, cold, wet, or windy it might be!

Date:

Astronomy

Jan. 22, 2013 Rise Set
Actual Time 7:18 AM CST 5:11 PM CST
Civil Twilight 6:49 AM CST 5:40 PM CST
Nautical Twilight 6:16 AM CST 6:13 PM CST
Astronomical Twilight 5:44 AM CST 6:45 PM CST
Moon 1:34 PM CST (1/22) 3:40 AM CST (1/22)
Length of Visible Light 10h 51m
Length of Day
9h 53m
Waxing Gibbous, 83% of the Moon is Illuminated
Jan 22
Waxing Gibbous
Jan 26
Full
Feb 3
Last Quarter
Feb 10
New
Feb 17
First Quarter

Hourly Weather History & Observations

Time (CST) Temp. Windchill Dew Point Humidity Pressure Visibility Wind Dir Wind Speed Gust Speed Precip Events Conditions
12:15 AM 12.2 °F 6.1 °F -0.0 °F 58% 30.38 in 10.0 mi West 3.5 mph - N/A   Clear
12:35 AM 12.0 °F 5.9 °F 0.1 °F 59% 30.38 in 10.0 mi West 3.5 mph - N/A   Clear
1:55 AM 11.3 °F 5.1 °F 0.5 °F 62% 30.39 in 10.0 mi WNW 3.5 mph - N/A   Clear
2:15 AM 11.3 °F 5.1 °F 1.0 °F 63% 30.38 in 10.0 mi WNW 3.5 mph - N/A   Clear
2:35 AM 11.3 °F -1.3 °F 2.1 °F 67% 30.38 in 10.0 mi NNW 9.2 mph - N/A   Clear
2:55 AM 12.2 °F -1.8 °F 1.4 °F 62% 30.39 in 10.0 mi NNW 11.5 mph - N/A   Clear
3:15 AM 11.5 °F -0.2 °F 1.2 °F 63% 30.38 in 10.0 mi NNW 8.1 mph - N/A   Scattered Clouds
3:35 AM 11.1 °F -2.4 °F 1.0 °F 64% 30.38 in 10.0 mi NNW 10.4 mph - N/A   Clear
3:55 AM 10.4 °F -3.3 °F 1.2 °F 66% 30.39 in 10.0 mi NNW 10.4 mph - N/A   Scattered Clouds
4:15 AM 10.4 °F -1.5 °F 1.2 °F 66% 30.39 in 10.0 mi NW 8.1 mph - N/A   Scattered Clouds
4:35 AM 9.7 °F -3.3 °F 1.4 °F 69% 30.40 in 10.0 mi NNW 9.2 mph - N/A   Scattered Clouds
4:55 AM 9.5 °F -2.6 °F 1.4 °F 70% 30.40 in 10.0 mi NNW 8.1 mph - N/A   Scattered Clouds
5:15 AM 9.0 °F -2.2 °F 1.2 °F 71% 30.41 in 10.0 mi NW 6.9 mph - N/A   Scattered Clouds
5:35 AM 8.8 °F 0.4 °F 1.2 °F 71% 30.41 in 10.0 mi NNW 4.6 mph - N/A   Scattered Clouds
5:55 AM 8.4 °F -0.1 °F 1.2 °F 73% 30.41 in 10.0 mi NW 4.6 mph - N/A   Scattered Clouds
6:15 AM 8.6 °F -1.3 °F 1.4 °F 73% 30.41 in 10.0 mi NNW 5.8 mph - N/A   Clear
6:35 AM 8.2 °F -1.8 °F -0.8 °F 67% 30.41 in 10.0 mi NNW 5.8 mph - N/A   Clear
6:55 AM 8.4 °F 1.8 °F -0.6 °F 67% 30.41 in 10.0 mi NNW 3.5 mph - N/A   Mostly Cloudy
7:15 AM 8.6 °F 0.1 °F -2.4 °F 61% 30.43 in 10.0 mi NW 4.6 mph - N/A   Overcast
7:35 AM 8.6 °F -2.6 °F -2.4 °F 61% 30.43 in 10.0 mi NNW 6.9 mph - N/A   Mostly Cloudy
7:55 AM 9.0 °F -0.9 °F -2.2 °F 61% 30.43 in 10.0 mi NNW 5.8 mph - N/A   Mostly Cloudy
8:15 AM 9.1 °F 0.8 °F -2.4 °F 60% 30.44 in 10.0 mi NW 4.6 mph - N/A   Mostly Cloudy
8:35 AM 9.1 °F -0.7 °F -3.1 °F 58% 30.44 in 10.0 mi NW 5.8 mph - N/A   Scattered Clouds
8:55 AM 9.5 °F -0.3 °F -3.3 °F 56% 30.45 in 10.0 mi NW 5.8 mph - N/A   Scattered Clouds
9:15 AM 9.9 °F 0.2 °F -2.6 °F 57% 30.45 in 10.0 mi NW 5.8 mph - N/A   Mostly Cloudy
9:35 AM 10.2 °F 3.8 °F -1.7 °F 59% 30.46 in 10.0 mi NNW 3.5 mph - N/A   Mostly Cloudy
9:55 AM 10.8 °F 2.7 °F -2.0 °F 56% 30.47 in 10.0 mi WNW 4.6 mph - N/A   Mostly Cloudy
10:15 AM 11.1 °F - -2.2 °F 55% 30.48 in 10.0 mi Calm Calm - N/A   Scattered Clouds
10:35 AM 11.7 °F 2.3 °F -2.0 °F 54% 30.47 in 10.0 mi West 5.8 mph - N/A   Scattered Clouds
10:55 AM 12.7 °F 5.0 °F -1.5 °F 53% 30.48 in 10.0 mi West 4.6 mph - N/A   Scattered Clouds
11:15 AM 12.7 °F 5.0 °F -1.1 °F 54% 30.47 in 10.0 mi WNW 4.6 mph - N/A   Scattered Clouds
11:35 AM 13.6 °F 2.5 °F -1.8 °F 50% 30.46 in 10.0 mi West 8.1 mph - N/A   Scattered Clouds
11:55 AM 13.8 °F 4.9 °F -1.7 °F 50% 30.45 in 10.0 mi WSW 5.8 mph - N/A   Clear
12:15 PM 14.4 °F 5.5 °F -1.5 °F 50% 30.43 in 10.0 mi SW 5.8 mph - N/A   Clear
12:35 PM 14.2 °F 4.1 °F -1.8 °F 49% 30.43 in 10.0 mi WSW 6.9 mph - N/A   Mostly Cloudy
12:55 PM 14.4 °F 3.3 °F -1.7 °F 49% 30.41 in 10.0 mi West 8.1 mph - N/A   Mostly Cloudy
1:15 PM 14.7 °F 3.8 °F -1.3 °F 49% 30.41 in 10.0 mi West 8.1 mph - N/A   Overcast
1:35 PM 15.1 °F 6.4 °F -0.2 °F 51% 30.40 in 10.0 mi West 5.8 mph - N/A   Overcast
1:55 PM 15.6 °F 8.3 °F 0.1 °F 51% 30.41 in 10.0 mi West 4.6 mph - N/A   Overcast
2:15 PM 15.8 °F 10.2 °F 0.7 °F 51% 30.40 in 10.0 mi WSW 3.5 mph - N/A   Overcast
2:35 PM 16.0 °F 7.4 °F -0.2 °F 49% 30.39 in 10.0 mi West 5.8 mph - N/A   Overcast
2:55 PM 16.3 °F 10.8 °F 0.3 °F 49% 30.39 in 10.0 mi West 3.5 mph - N/A   Overcast
3:15 PM 16.9 °F 9.8 °F 0.9 °F 50% 30.38 in 10.0 mi NNW 4.6 mph - N/A   Overcast
3:35 PM 16.7 °F - 1.0 °F 50% 30.37 in 10.0 mi Calm Calm - N/A   Overcast
3:55 PM 16.7 °F - 1.4 °F 51% 30.37 in 10.0 mi Calm Calm - N/A   Mostly Cloudy
4:15 PM 17.1 °F - 1.4 °F 50% 30.37 in 10.0 mi Calm Calm - N/A   Mostly Cloudy
4:35 PM 17.2 °F 11.9 °F 1.9 °F 51% 30.37 in 10.0 mi West 3.5 mph - N/A   Overcast
4:55 PM 17.2 °F - 1.8 °F 51% 30.37 in 10.0 mi Calm Calm - N/A   Overcast
5:15 PM 17.1 °F - 1.6 °F 51% 30.37 in 10.0 mi Calm Calm - N/A   Overcast
5:35 PM 17.1 °F - 1.9 °F 52% 30.36 in 10.0 mi Calm Calm - N/A   Overcast
5:55 PM 17.1 °F - 2.1 °F 52% 30.37 in 10.0 mi Calm Calm - N/A   Overcast
6:15 PM 17.1 °F - 1.9 °F 52% 30.37 in 10.0 mi Calm Calm - N/A   Overcast
6:35 PM 17.2 °F - 2.1 °F 52% 30.36 in 10.0 mi Calm Calm - N/A   Overcast
6:55 PM 17.2 °F - 2.5 °F 52% 30.36 in 10.0 mi Calm Calm - N/A   Overcast
7:15 PM 17.1 °F - 2.5 °F 53% 30.37 in 10.0 mi Calm Calm - N/A   Overcast
7:35 PM 17.4 °F - 3.9 °F 56% 30.37 in 10.0 mi Calm Calm - N/A   Overcast
7:55 PM 17.6 °F - 4.3 °F 56% 30.38 in 10.0 mi Calm Calm - N/A   Overcast
8:15 PM 17.6 °F - 4.8 °F 57% 30.38 in 10.0 mi Calm Calm - N/A   Overcast
8:35 PM 17.6 °F - 4.6 °F 57% 30.38 in 10.0 mi Calm Calm - N/A   Overcast
8:55 PM 17.6 °F - 7.5 °F 65% 30.37 in 10.0 mi Calm Calm - N/A   Overcast
9:15 PM 17.4 °F - 7.0 °F 64% 30.37 in 10.0 mi Calm Calm - N/A   Overcast
9:35 PM 17.4 °F - 7.5 °F 65% 30.38 in 10.0 mi Calm Calm - N/A   Overcast
9:55 PM 17.4 °F - 6.8 °F 63% 30.38 in 10.0 mi Calm Calm - N/A   Overcast
10:15 PM 17.6 °F 12.3 °F 7.5 °F 65% 30.37 in 10.0 mi South 3.5 mph - N/A   Overcast
10:35 PM 17.1 °F - 7.3 °F 66% 30.38 in 10.0 mi Calm Calm - N/A   Mostly Cloudy
10:55 PM 16.7 °F - 8.2 °F 69% 30.37 in 10.0 mi Calm Calm - N/A   Mostly Cloudy
11:15 PM 16.5 °F - 8.6 °F 71% 30.37 in 10.0 mi Calm Calm - N/A   Mostly Cloudy
11:35 PM 15.1 °F - 8.6 °F 76% 30.36 in 10.0 mi Calm Calm - N/A   Scattered Clouds
11:55 PM 15.8 °F - 10.4 °F 79% 30.36 in 10.0 mi Calm Calm - N/A   Mostly Cloudy